Regional Weather Roundup
Issued by NWS Cleveland, OH

Home | Current Version | Previous Version | Graphics & Text | Print | Product List | Glossary On
Versions: 1 2 3 4 5 6 7 8 9 10 11 12 13 14 15 16 17 18 19 20 21 22 23 24 25 26 27 28 29 30 31 32 33 34 35 36 37 38 39 40 41 42 43 44 45 46 47 48 49 50
000
ASUS41 KCLE 061710
RWRCLE
OHIO REGIONAL WEATHER ROUNDUP
NATIONAL WEATHER SERVICE CLEVELAND, OH
100 PM EDT MON JUL 06 2015

NOTE: "FAIR" INDICATES FEW OR NO CLOUDS BELOW 12,000 FEET WITH NO
SIGNIFICANT WEATHER AND/OR OBSTRUCTIONS TO VISIBILITY.

OHZ001>008-015>018-024>027-034-035-043-044-061800-
   NORTHWEST OHIO

CITY           SKY/WX    TMP DP  RH WIND       PRES   REMARKS
DEFIANCE       SUNNY     81  61  50 SW8       30.05F
FINDLAY        SUNNY     80  61  52 S5        30.06F
TOLEDO EXPRESS SUNNY     80  62  54 MISG      30.05S
TOLEDO EXEC    SUNNY     81  59  47 SW5       30.06F
LIMA           SUNNY     79  63  57 SW8       30.07F
$$

OHZ009>014-019>023-028>033-038-089-061800-
   NORTHEAST OHIO

CITY           SKY/WX    TMP DP  RH WIND       PRES   REMARKS
CLE-HOPKINS    MOSUNNY   83  62  49 NE7       30.07F
CLE-LAKEFRONT  SUNNY     77  67  71 NW6       30.05F
CUY CO. ARPT   MOSUNNY   82  61  47 N9        30.07F
LORAIN-ELYRIA  SUNNY     81  64  56 VRB3      30.07F
ASHTABULA      PTSUNNY   81  65  58 VRB3      30.06F
AKRON-CANTON   PTSUNNY   81  65  58 CALM      30.06F
WOOSTER        MOSUNNY   80  66  62 CALM      30.08F
MANSFIELD      MOSUNNY   79  62  56 CALM      30.08F
YOUNGSTOWN     PTSUNNY   81  65  58 VRB6      30.06F
$$

OHZ042-051>053-060>062-070>072-077>081-061800-
  SOUTHWEST OHIO

CITY           SKY/WX    TMP DP  RH WIND       PRES   REMARKS
CINC-COVINGTON MOSUNNY   80  65  59 SW6       30.10S
CINC-LUNKEN    SUNNY     80  64  58 W8        30.09F
HAMILTON       MOSUNNY   79  66  64 VRB3      30.10S
DAYTON         MOSUNNY   81  63  54 VRB3      30.10S
WRIGHT-PAT AFB MOSUNNY   79  62  55 SW5       30.08F
DAYTON GENERAL SUNNY     77  61  57 W3        30.09S
WILMINGTON     MOSUNNY   78  61  55 W8        30.10S
$$

OHZ036-037-039>041-045>050-054>059-063>069-073>076-082>088-061800-
  CENTRAL AND SOUTHEAST OHIO

CITY           SKY/WX    TMP DP  RH WIND       PRES   REMARKS
COLUMBUS       PTSUNNY   81  63  54 VRB5      30.06F
OSU AIRPORT    MOSUNNY   82  64  54 SW3       30.07F
BOLTON FIELD   MOSUNNY   81  66  61 W6        30.08F
RICKENBACK AFB SUNNY     80  64  57 SW5       30.07F
NEWARK         MOSUNNY   78  66  66 VRB5      30.07F
MARION         SUNNY     81  63  54 VRB5      30.08F
LANCASTER      SUNNY     82  66  58 CALM      30.09S
ZANESVILLE     NOT AVBL
NEW PHILLY     MOSUNNY   80  69  69 VRB5      30.06F
$$



USA.gov is the U.S. government's official web portal to all federal, state and local government web resources and services.